sat.trackr.live / text

‹ back to catalog

STARLINK-11573 [DTC]

NORAD 62989 · 2025-031J

PAYLOAD ACTIVE UNKNOWN

§ Identity

Operator
Country
US
Launch date
2025-02-11
Launch site
AFETR
Launch vehicle
Mass (kg)
RCS (m²)

Purposes: comms

External: N2YO · Heavens-Above · Gunter

§ Orbital elements

Epoch: 2026-09-21T08:32:17.288160Z

Period
91.67 min
Inclination
42.9995°
Eccentricity
0.0001637
Mean motion
15.70880848 rev/d
Perigee alt
355.3 km
Apogee alt
357.5 km
Semi-major
6,734.5 km
B*
1.3277e-3
RAAN
262.2218°
Arg perigee
279.8128°
Mean anomaly
80.2555°
Rev number
9,348

§ Raw data

STARLINK-11573 [DTC]1 62989U 25031J   26264.35575565  .00173816  00000+0  13277-2 0  99932 62989  42.9995 262.2218 0001637 279.8128  80.2555 15.70880848 93489

JSON: /api/v1/satellites/62989 · /tle

For live sub-satellite position, see the globe view (requires WebGL).

§ Visibility from observer

Set your observer location to see the next 7 days of passes ≥ 10°. The values pass through the URL so the page stays shareable.

No JS? Fill the form by hand. The geolocation button needs JavaScript.